RYR5395 GCFV-LEZL

Flight info

Callsign RYR5395
Flight time 1h 40m
Altitude 38000
Route KORAL UN871 SONSO DCT NIRAL UN871 ADUBI DCT VJF
Aircraft B738/M-SDE2E3FGHIRWXY/LB1

Departure

Time 2026-05-08 14:45
Airport Fuerteventura Airport (GCFV)

Arrival

Time 2026-05-08 16:25
Airport Seville Airport (LEZL)
Time Latitude Longitude Altitude Speed Heading
2026-05-08 14:05 28.45177 -13.86836 96 ft 0 kts 271°
2026-05-08 14:34 28.45176 -13.86816 97 ft 4 kts 271°
2026-05-08 14:34 28.45175 -13.86786 96 ft 3 kts 271°
2026-05-08 14:35 28.45172 -13.86762 97 ft 4 kts 304°
2026-05-08 14:35 28.45153 -13.86746 98 ft 4 kts 349°
2026-05-08 14:35 28.45126 -13.86743 98 ft 3 kts
2026-05-08 14:35 28.45100 -13.86744 97 ft 4 kts
2026-05-08 14:36 28.45076 -13.86744 96 ft 1 kts
2026-05-08 14:38 28.45077 -13.86744 125 ft 1 kts
2026-05-08 14:39 28.45101 -13.86743 98 ft 8 kts
2026-05-08 14:39 28.45181 -13.86740 98 ft 15 kts
2026-05-08 14:39 28.45308 -13.86737 98 ft 20 kts
2026-05-08 14:39 28.45370 -13.86634 97 ft 1 kts 92°
2026-05-08 14:41 28.45370 -13.86633 97 ft 0 kts 92°
2026-05-08 14:41 28.45369 -13.86614 97 ft 7 kts 91°
2026-05-08 14:41 28.45426 -13.86564 95 ft 15 kts
2026-05-08 14:42 28.45562 -13.86557 97 ft 23 kts
2026-05-08 14:42 28.45740 -13.86552 96 ft 26 kts
2026-05-08 14:42 28.45914 -13.86548 99 ft 24 kts
2026-05-08 14:42 28.46078 -13.86545 97 ft 23 kts
2026-05-08 14:43 28.46234 -13.86536 95 ft 22 kts
2026-05-08 14:43 28.46290 -13.86454 91 ft 16 kts 127°
2026-05-08 14:43 28.46224 -13.86358 88 ft 12 kts 131°
2026-05-08 14:43 28.46154 -13.86347 90 ft 4 kts 183°
2026-05-08 14:44 28.46132 -13.86349 89 ft 19 kts 183°
2026-05-08 14:45 28.45759 -13.86364 88 ft 89 kts 180°
2026-05-08 14:45 28.44924 -13.86400 74 ft 148 kts 183°
2026-05-08 14:45 28.43795 -13.86449 461 ft 164 kts 181°
2026-05-08 14:45 28.42668 -13.86577 1311 ft 163 kts 186°
2026-05-08 14:46 28.41510 -13.86628 2010 ft 171 kts 186°
2026-05-08 14:46 28.40244 -13.86394 2311 ft 209 kts 151°
2026-05-08 14:46 28.39384 -13.85041 2953 ft 222 kts 109°
2026-05-08 14:46 28.39310 -13.83227 3174 ft 243 kts 73°
2026-05-08 14:47 28.40194 -13.81610 3637 ft 249 kts 38°
2026-05-08 14:47 28.41765 -13.80682 4029 ft 263 kts 14°
2026-05-08 14:47 28.43536 -13.80127 4820 ft 265 kts 11°
2026-05-08 14:47 28.45330 -13.79603 5650 ft 267 kts 11°
2026-05-08 14:48 28.47151 -13.79049 6342 ft 275 kts 11°
2026-05-08 14:48 28.49023 -13.78441 6971 ft 284 kts 12°
2026-05-08 14:48 28.50928 -13.77760 7669 ft 290 kts 14°
2026-05-08 14:48 28.52857 -13.77020 8335 ft 297 kts 14°
2026-05-08 14:49 28.54833 -13.76242 9004 ft 304 kts 14°
2026-05-08 14:49 28.56841 -13.75443 9721 ft 309 kts 15°
2026-05-08 14:49 28.58895 -13.74622 10289 ft 318 kts 15°
2026-05-08 14:49 28.61064 -13.73757 10461 ft 342 kts 15°
2026-05-08 14:50 28.63372 -13.72834 10722 ft 360 kts 15°
2026-05-08 14:50 28.65739 -13.71804 11260 ft 369 kts 22°
2026-05-08 14:50 28.67902 -13.70181 11862 ft 378 kts 38°
2026-05-08 14:50 28.69786 -13.68077 11992 ft 382 kts 44°
2026-05-08 14:51 28.71631 -13.65869 12544 ft 386 kts 44°
2026-05-08 14:51 28.73458 -13.63655 13536 ft 376 kts 44°
2026-05-08 14:51 28.75155 -13.61597 15090 ft 336 kts 44°
2026-05-08 14:51 28.76648 -13.59791 16740 ft 293 kts 43°
2026-05-08 14:52 28.78014 -13.58152 17630 ft 282 kts 42°
2026-05-08 14:52 28.80848 -13.54804 17934 ft 307 kts 42°
2026-05-08 14:52 28.82362 -13.53021 18091 ft 317 kts 43°
2026-05-08 14:53 28.83889 -13.51219 18348 ft 322 kts 42°
2026-05-08 14:53 28.85445 -13.49379 18663 ft 323 kts 43°
2026-05-08 14:53 28.87004 -13.47535 19021 ft 324 kts 43°
2026-05-08 14:53 28.88575 -13.45677 19299 ft 327 kts 43°
2026-05-08 14:54 28.90160 -13.43802 19575 ft 330 kts 43°
2026-05-08 14:54 28.91756 -13.41912 19864 ft 332 kts 43°
2026-05-08 14:54 28.93364 -13.40009 20143 ft 334 kts 42°
2026-05-08 14:54 28.94985 -13.38090 20423 ft 337 kts 42°
2026-05-08 14:55 28.96612 -13.36162 20705 ft 339 kts 42°
2026-05-08 14:55 28.98255 -13.34214 20976 ft 341 kts 42°
2026-05-08 14:55 28.99904 -13.32259 21245 ft 344 kts 42°
2026-05-08 14:55 29.01567 -13.30285 21516 ft 346 kts 42°
2026-05-08 14:56 29.03243 -13.28295 21775 ft 348 kts 42°
2026-05-08 14:56 29.04927 -13.26296 22031 ft 350 kts 42°
2026-05-08 14:56 29.06620 -13.24283 22287 ft 352 kts 42°
2026-05-08 14:56 29.08320 -13.22262 22538 ft 354 kts 42°
2026-05-08 14:57 29.10034 -13.20223 22782 ft 356 kts 42°
2026-05-08 14:57 29.11759 -13.18170 23015 ft 359 kts 42°
2026-05-08 14:57 29.13494 -13.16104 23262 ft 361 kts 42°
2026-05-08 14:57 29.15234 -13.14031 23498 ft 362 kts 42°
2026-05-08 14:58 29.16986 -13.11944 23689 ft 365 kts 42°
2026-05-08 14:58 29.18746 -13.09844 23897 ft 367 kts 42°
2026-05-08 14:58 29.20513 -13.07735 24081 ft 368 kts 42°
2026-05-08 14:58 29.22292 -13.05611 24285 ft 369 kts 42°
2026-05-08 14:59 29.24068 -13.03489 24499 ft 369 kts 42°
2026-05-08 14:59 29.27630 -12.99229 24880 ft 372 kts 42°
2026-05-08 14:59 29.29397 -12.97116 25066 ft 373 kts 41°
2026-05-08 15:00 29.31212 -12.94943 25248 ft 374 kts 41°
2026-05-08 15:00 29.32990 -12.92813 25436 ft 375 kts 41°
2026-05-08 15:00 29.34796 -12.90649 25611 ft 375 kts 41°
2026-05-08 15:00 29.36598 -12.88489 25795 ft 376 kts 41°
2026-05-08 15:01 29.38409 -12.86315 25951 ft 378 kts 41°
2026-05-08 15:01 29.40228 -12.84133 26100 ft 379 kts 41°
2026-05-08 15:01 29.42053 -12.81940 26256 ft 380 kts 41°
2026-05-08 15:01 29.43881 -12.79744 26432 ft 381 kts 41°
2026-05-08 15:02 29.45712 -12.77542 26586 ft 382 kts 41°
2026-05-08 15:02 29.47546 -12.75335 26725 ft 383 kts 42°
2026-05-08 15:02 29.49387 -12.73120 26855 ft 384 kts 42°
2026-05-08 15:02 29.51237 -12.70892 26995 ft 387 kts 42°
2026-05-08 15:03 29.53097 -12.68651 27100 ft 389 kts 42°
2026-05-08 15:03 29.54967 -12.66396 27257 ft 389 kts 42°
2026-05-08 15:03 29.56828 -12.64150 27410 ft 389 kts 42°
2026-05-08 15:03 29.58685 -12.61907 27523 ft 391 kts 42°
2026-05-08 15:04 29.60568 -12.59635 27568 ft 396 kts 42°
2026-05-08 15:04 29.62490 -12.57315 27578 ft 404 kts 42°
2026-05-08 15:04 29.64447 -12.54952 27599 ft 413 kts 42°
2026-05-08 15:04 29.65495 -12.53686 27616 ft 419 kts 42°
2026-05-08 15:05 29.67539 -12.51216 27654 ft 433 kts 42°
2026-05-08 15:05 29.69520 -12.48819 27749 ft 445 kts 43°
2026-05-08 15:05 29.70421 -12.47728 27799 ft 450 kts 43°
2026-05-08 15:05 29.71896 -12.45940 27865 ft 458 kts 43°
2026-05-08 15:06 29.72636 -12.45042 27902 ft 463 kts 43°
2026-05-08 15:06 29.74824 -12.42387 27993 ft 474 kts 43°
2026-05-08 15:06 29.77118 -12.39602 28064 ft 485 kts 43°
2026-05-08 15:06 29.79465 -12.36749 28147 ft 496 kts 43°
2026-05-08 15:07 29.81862 -12.33832 28263 ft 506 kts 43°
2026-05-08 15:07 29.84271 -12.30899 28321 ft 516 kts 44°
2026-05-08 15:07 29.86757 -12.27869 28487 ft 522 kts 44°
2026-05-08 15:07 29.89255 -12.24822 28848 ft 524 kts 44°
2026-05-08 15:08 29.91755 -12.21769 29247 ft 524 kts 44°
2026-05-08 15:08 29.93447 -12.19702 29492 ft 525 kts 43°
2026-05-08 15:08 29.96783 -12.15627 29899 ft 529 kts 43°
2026-05-08 15:08 29.99314 -12.12533 30165 ft 532 kts 43°
2026-05-08 15:09 30.01859 -12.09423 30425 ft 533 kts 43°
2026-05-08 15:09 30.04462 -12.06372 30694 ft 534 kts 41°
2026-05-08 15:09 30.07124 -12.03390 30982 ft 534 kts 40°
2026-05-08 15:09 30.09813 -12.00437 31376 ft 532 kts 39°
2026-05-08 15:10 30.12497 -11.97498 31781 ft 530 kts 39°
2026-05-08 15:10 30.15160 -11.94570 32131 ft 529 kts 40°
2026-05-08 15:10 30.17816 -11.91627 32440 ft 529 kts 40°
2026-05-08 15:10 30.20467 -11.88671 32748 ft 529 kts 40°
2026-05-08 15:11 30.23111 -11.85707 33085 ft 529 kts 40°
2026-05-08 15:11 30.25744 -11.82746 33426 ft 528 kts 40°
2026-05-08 15:11 30.28377 -11.79780 33750 ft 527 kts 40°
2026-05-08 15:11 30.31006 -11.76817 34054 ft 527 kts 40°
2026-05-08 15:12 30.33628 -11.73860 34331 ft 527 kts 40°
2026-05-08 15:12 30.36250 -11.70902 34611 ft 526 kts 40°
2026-05-08 15:12 30.38866 -11.67949 34884 ft 525 kts 40°
2026-05-08 15:12 30.41483 -11.64994 35143 ft 525 kts 40°
2026-05-08 15:13 30.44093 -11.62044 35439 ft 524 kts 40°
2026-05-08 15:13 30.46712 -11.59084 35613 ft 526 kts 40°
2026-05-08 15:13 30.49336 -11.56115 35790 ft 528 kts 40°
2026-05-08 15:13 30.51955 -11.53149 36055 ft 527 kts 40°
2026-05-08 15:14 30.54575 -11.50177 36359 ft 525 kts 40°
2026-05-08 15:14 30.57179 -11.47221 36600 ft 524 kts 39°
2026-05-08 15:14 30.59785 -11.44262 36823 ft 525 kts 39°
2026-05-08 15:14 30.62391 -11.41300 37054 ft 524 kts 39°
2026-05-08 15:15 30.64991 -11.38343 37383 ft 521 kts 39°
2026-05-08 15:15 30.67571 -11.35404 37734 ft 518 kts 39°
2026-05-08 15:15 30.69275 -11.33462 37946 ft 516 kts 39°
2026-05-08 15:15 30.72681 -11.29581 37940 ft 520 kts 40°
2026-05-08 15:16 30.77844 -11.23694 37988 ft 520 kts 40°
2026-05-08 15:16 30.82992 -11.17807 37970 ft 517 kts 40°
2026-05-08 15:17 30.87250 -11.12930 37960 ft 515 kts 40°
2026-05-08 15:17 30.92344 -11.07090 37963 ft 513 kts 40°
2026-05-08 15:18 30.97428 -11.01252 37968 ft 512 kts 40°
2026-05-08 15:18 31.02500 -10.95420 37970 ft 512 kts 40°
2026-05-08 15:19 31.07575 -10.89576 38000 ft 514 kts 40°
2026-05-08 15:19 31.12678 -10.83690 37983 ft 517 kts 40°
2026-05-08 15:20 31.17804 -10.77767 37967 ft 520 kts 40°
2026-05-08 15:20 31.22958 -10.71800 37966 ft 523 kts 40°
2026-05-08 15:21 31.28133 -10.65801 37970 ft 525 kts 40°
2026-05-08 15:21 31.33323 -10.59773 37964 ft 527 kts 40°
2026-05-08 15:22 31.38525 -10.53721 37984 ft 528 kts 41°
2026-05-08 15:22 31.43735 -10.47650 37970 ft 528 kts 41°
2026-05-08 15:23 31.48947 -10.41567 37956 ft 528 kts 41°
2026-05-08 15:23 31.54145 -10.35490 37961 ft 528 kts 41°
2026-05-08 15:24 31.59299 -10.29454 37956 ft 527 kts 41°
2026-05-08 15:24 31.64476 -10.23382 37950 ft 526 kts 41°
2026-05-08 15:25 31.69644 -10.17310 37954 ft 525 kts 41°
2026-05-08 15:25 31.74796 -10.11248 37957 ft 524 kts 41°
2026-05-08 15:26 31.79937 -10.05187 37952 ft 524 kts 41°
2026-05-08 15:26 31.85081 -9.99113 37954 ft 523 kts 41°
2026-05-08 15:27 31.90209 -9.93049 37951 ft 523 kts 41°
2026-05-08 15:27 31.95340 -9.86969 37949 ft 523 kts 41°
2026-05-08 15:28 32.00476 -9.80875 37937 ft 524 kts 42°
2026-05-08 15:28 32.05614 -9.74768 37946 ft 525 kts 42°
2026-05-08 15:29 32.10757 -9.68644 37947 ft 526 kts 42°
2026-05-08 15:29 32.15908 -9.62500 37946 ft 527 kts 42°
2026-05-08 15:30 32.21063 -9.56341 37946 ft 528 kts 42°
2026-05-08 15:30 32.26217 -9.50171 37997 ft 528 kts 42°
2026-05-08 15:31 32.31384 -9.43977 37922 ft 530 kts 43°
2026-05-08 15:31 32.36553 -9.37768 37933 ft 530 kts 43°
2026-05-08 15:32 32.41721 -9.31550 37937 ft 530 kts 43°
2026-05-08 15:32 32.46888 -9.25323 37939 ft 530 kts 43°
2026-05-08 15:33 32.52040 -9.19103 37938 ft 529 kts 43°
2026-05-08 15:33 32.57175 -9.12894 38002 ft 534 kts 43°
2026-05-08 15:34 32.62420 -9.06543 37918 ft 543 kts 43°
2026-05-08 15:34 32.67729 -9.00099 37937 ft 548 kts 43°
2026-05-08 15:35 32.73075 -8.93596 37932 ft 551 kts 43°
2026-05-08 15:35 32.78440 -8.87060 37926 ft 553 kts 43°
2026-05-08 15:36 32.83802 -8.80516 37920 ft 552 kts 43°
2026-05-08 15:36 32.89162 -8.73962 37910 ft 552 kts 43°
2026-05-08 15:37 32.94500 -8.67423 37923 ft 549 kts 44°
2026-05-08 15:37 32.99814 -8.60901 37910 ft 548 kts 44°
2026-05-08 15:38 33.05108 -8.54391 37913 ft 545 kts 44°
2026-05-08 15:38 33.10377 -8.47901 37911 ft 543 kts 44°
2026-05-08 15:39 33.15623 -8.41428 37910 ft 542 kts 44°
2026-05-08 15:39 33.21098 -8.35284 37905 ft 536 kts 31°
2026-05-08 15:40 33.27299 -8.30559 37900 ft 531 kts 26°
2026-05-08 15:40 33.33607 -8.25961 37916 ft 532 kts 26°
2026-05-08 15:41 33.39905 -8.21291 37903 ft 533 kts 27°
2026-05-08 15:41 33.46199 -8.16545 37904 ft 536 kts 27°
2026-05-08 15:42 33.52507 -8.11759 37914 ft 537 kts 27°
2026-05-08 15:42 33.58833 -8.06953 37909 ft 538 kts 27°
2026-05-08 15:43 33.65165 -8.02139 37898 ft 539 kts 27°
2026-05-08 15:43 33.71507 -7.97312 37934 ft 540 kts 28°
2026-05-08 15:44 33.77867 -7.92463 37921 ft 541 kts 28°
2026-05-08 15:44 33.84228 -7.87604 37911 ft 542 kts 28°
2026-05-08 15:45 33.90583 -7.82739 37910 ft 542 kts 28°
2026-05-08 15:45 33.96944 -7.77862 37913 ft 541 kts 28°
2026-05-08 15:46 34.03302 -7.72979 37915 ft 542 kts 28°
2026-05-08 15:46 34.09620 -7.68118 37915 ft 541 kts 28°
2026-05-08 15:47 34.15969 -7.63223 37911 ft 541 kts 28°
2026-05-08 15:47 34.22305 -7.58330 37874 ft 540 kts 28°
2026-05-08 15:48 34.31785 -7.50993 37920 ft 540 kts 28°
2026-05-08 15:49 34.38110 -7.46087 37904 ft 539 kts 28°
2026-05-08 15:49 34.44427 -7.41178 37917 ft 539 kts 28°
2026-05-08 15:50 34.50740 -7.36263 37906 ft 539 kts 28°
2026-05-08 15:50 34.57057 -7.31336 37913 ft 540 kts 28°
2026-05-08 15:51 34.63376 -7.26398 37916 ft 541 kts 28°
2026-05-08 15:51 34.69702 -7.21446 37869 ft 541 kts 28°
2026-05-08 15:52 34.75960 -7.16537 37898 ft 541 kts 28°
2026-05-08 15:52 34.82278 -7.11573 37914 ft 542 kts 28°
2026-05-08 15:53 34.88613 -7.06587 37914 ft 542 kts 28°
2026-05-08 15:53 34.94951 -7.01588 37905 ft 543 kts 28°
2026-05-08 15:53 34.98122 -6.99084 37712 ft 546 kts 29°
2026-05-08 15:54 35.01328 -6.96552 37191 ft 548 kts 29°
2026-05-08 15:54 35.04500 -6.94039 36800 ft 541 kts 29°
2026-05-08 15:54 35.07643 -6.91547 36397 ft 537 kts 29°
2026-05-08 15:54 35.10760 -6.89073 35979 ft 533 kts 29°
2026-05-08 15:55 35.13862 -6.86611 35566 ft 529 kts 29°
2026-05-08 15:55 35.19997 -6.81738 34706 ft 523 kts 29°
2026-05-08 15:55 35.23032 -6.79323 34304 ft 520 kts 29°
2026-05-08 15:56 35.26063 -6.76909 33873 ft 518 kts 29°
2026-05-08 15:56 35.29074 -6.74510 33406 ft 516 kts 29°
2026-05-08 15:56 35.32072 -6.72117 33006 ft 513 kts 29°
2026-05-08 15:56 35.35014 -6.69769 32582 ft 510 kts 28°
2026-05-08 15:57 35.38002 -6.67428 32025 ft 510 kts 27°
2026-05-08 15:57 35.40999 -6.65124 31611 ft 507 kts 27°
2026-05-08 15:57 35.44015 -6.62820 31198 ft 504 kts 27°
2026-05-08 15:57 35.46945 -6.60580 30802 ft 501 kts 27°
2026-05-08 15:58 35.49898 -6.58315 30409 ft 499 kts 27°
2026-05-08 15:58 35.52828 -6.56059 29991 ft 497 kts 27°
2026-05-08 15:58 35.55752 -6.53803 29523 ft 494 kts 27°
2026-05-08 15:58 35.58644 -6.51566 29127 ft 490 kts 27°
2026-05-08 15:59 35.61555 -6.49311 28678 ft 486 kts 27°
2026-05-08 15:59 35.64370 -6.47129 28245 ft 483 kts 27°
2026-05-08 15:59 35.67198 -6.44936 27822 ft 478 kts 27°
2026-05-08 15:59 35.69994 -6.42765 27429 ft 474 kts 28°
2026-05-08 16:00 35.72777 -6.40604 27023 ft 470 kts 28°
2026-05-08 16:00 35.75531 -6.38464 26621 ft 466 kts 28°
2026-05-08 16:00 35.78264 -6.36338 26227 ft 463 kts 28°
2026-05-08 16:00 35.80973 -6.34230 25839 ft 459 kts 29°
2026-05-08 16:01 35.83662 -6.32134 25454 ft 456 kts 30°
2026-05-08 16:01 35.86286 -6.29990 25202 ft 449 kts 32°
2026-05-08 16:01 35.88838 -6.27807 24956 ft 443 kts 33°
2026-05-08 16:01 35.91337 -6.25635 24721 ft 436 kts 33°
2026-05-08 16:02 35.93803 -6.23490 24432 ft 431 kts 33°
2026-05-08 16:02 35.96250 -6.21372 24085 ft 429 kts 33°
2026-05-08 16:02 35.98690 -6.19270 23722 ft 427 kts 33°
2026-05-08 16:02 36.01128 -6.17177 23294 ft 426 kts 33°
2026-05-08 16:03 36.03556 -6.15093 22864 ft 424 kts 33°
2026-05-08 16:03 36.05970 -6.13022 22459 ft 421 kts 33°
2026-05-08 16:03 36.08370 -6.10960 22072 ft 418 kts 33°
2026-05-08 16:03 36.09945 -6.09606 21837 ft 417 kts 33°
2026-05-08 16:04 36.12316 -6.07567 21422 ft 414 kts 33°
2026-05-08 16:04 36.14673 -6.05538 21033 ft 411 kts 33°
2026-05-08 16:04 36.17010 -6.03525 20679 ft 408 kts 33°
2026-05-08 16:04 36.19335 -6.01520 20315 ft 406 kts 33°
2026-05-08 16:05 36.21649 -5.99525 19937 ft 404 kts 33°
2026-05-08 16:05 36.24028 -5.97696 19564 ft 400 kts 23°
2026-05-08 16:05 36.26571 -5.96434 19348 ft 388 kts 13°
2026-05-08 16:05 36.29140 -5.95463 19037 ft 385 kts 12°
2026-05-08 16:06 36.31707 -5.94526 18690 ft 383 kts 11°
2026-05-08 16:06 36.34256 -5.93598 18334 ft 382 kts 12°
2026-05-08 16:06 36.36810 -5.92661 17933 ft 382 kts 12°
2026-05-08 16:06 36.39349 -5.91720 17540 ft 380 kts 12°
2026-05-08 16:07 36.41870 -5.90776 17167 ft 377 kts 12°
2026-05-08 16:07 36.44370 -5.89836 16796 ft 375 kts 12°
2026-05-08 16:07 36.46857 -5.88897 16442 ft 373 kts 12°
2026-05-08 16:07 36.49340 -5.87957 16078 ft 371 kts 12°
2026-05-08 16:08 36.51795 -5.87027 15723 ft 369 kts 13°
2026-05-08 16:08 36.54246 -5.86097 15366 ft 367 kts 13°
2026-05-08 16:08 36.56681 -5.85173 15015 ft 365 kts 13°
2026-05-08 16:08 36.59101 -5.84255 14665 ft 363 kts 13°
2026-05-08 16:09 36.61511 -5.83339 14317 ft 361 kts 13°
2026-05-08 16:09 36.63911 -5.82426 13959 ft 360 kts 13°
2026-05-08 16:09 36.66298 -5.81518 13600 ft 358 kts 13°
2026-05-08 16:09 36.68683 -5.80611 13218 ft 357 kts 13°
2026-05-08 16:10 36.71044 -5.79711 12847 ft 354 kts 14°
2026-05-08 16:10 36.73397 -5.78814 12511 ft 352 kts 14°
2026-05-08 16:10 36.75729 -5.77924 12155 ft 349 kts 14°
2026-05-08 16:10 36.78046 -5.77040 11805 ft 347 kts 14°
2026-05-08 16:11 36.80317 -5.76172 11477 ft 345 kts 14°
2026-05-08 16:11 36.82602 -5.75299 11134 ft 343 kts 14°
2026-05-08 16:11 36.84904 -5.74419 10792 ft 340 kts 15°
2026-05-08 16:11 36.87152 -5.73558 10467 ft 337 kts 15°
2026-05-08 16:12 36.89350 -5.72717 10145 ft 330 kts 15°
2026-05-08 16:12 36.91499 -5.71892 9995 ft 316 kts 15°
2026-05-08 16:12 36.93560 -5.71101 9831 ft 304 kts 15°
2026-05-08 16:12 36.95558 -5.70335 9546 ft 296 kts 15°
2026-05-08 16:13 36.97503 -5.69588 9243 ft 289 kts 15°
2026-05-08 16:13 36.99406 -5.68858 9018 ft 281 kts 16°
2026-05-08 16:13 37.01232 -5.68156 8918 ft 268 kts 16°
2026-05-08 16:13 37.02968 -5.67489 8784 ft 256 kts 15°
2026-05-08 16:14 37.04656 -5.66840 8461 ft 253 kts 16°
2026-05-08 16:14 37.06349 -5.66190 8148 ft 253 kts 16°
2026-05-08 16:14 37.08016 -5.65548 7890 ft 249 kts 17°
2026-05-08 16:14 37.09682 -5.64907 7573 ft 253 kts 17°
2026-05-08 16:15 37.11383 -5.64252 7307 ft 257 kts 17°
2026-05-08 16:15 37.13095 -5.63593 7048 ft 257 kts 17°
2026-05-08 16:15 37.14807 -5.62932 6792 ft 257 kts 18°
2026-05-08 16:15 37.16516 -5.62273 6531 ft 257 kts 17°
2026-05-08 16:16 37.18243 -5.61731 6300 ft 254 kts
2026-05-08 16:16 37.19989 -5.61644 6049 ft 247 kts
2026-05-08 16:16 37.21692 -5.61569 5777 ft 243 kts
2026-05-08 16:16 37.23367 -5.61472 5533 ft 240 kts
2026-05-08 16:17 37.25029 -5.61365 5296 ft 239 kts
2026-05-08 16:17 37.26690 -5.61254 5068 ft 239 kts
2026-05-08 16:17 37.28354 -5.61142 4850 ft 239 kts
2026-05-08 16:17 37.29991 -5.61031 4602 ft 231 kts
2026-05-08 16:18 37.31565 -5.60922 4360 ft 221 kts
2026-05-08 16:18 37.33064 -5.60818 4112 ft 210 kts
2026-05-08 16:18 37.34479 -5.60720 3930 ft 197 kts
2026-05-08 16:18 37.35831 -5.60627 3837 ft 192 kts
2026-05-08 16:19 37.37166 -5.60536 3662 ft 192 kts
2026-05-08 16:19 37.38472 -5.60447 3587 ft 186 kts
2026-05-08 16:19 37.39771 -5.60358 3531 ft 185 kts
2026-05-08 16:19 37.40974 -5.60602 3414 ft 166 kts 321°
2026-05-08 16:20 37.41516 -5.61746 3415 ft 153 kts 272°
2026-05-08 16:20 37.41636 -5.63110 3301 ft 160 kts 273°
2026-05-08 16:20 37.41775 -5.64472 3250 ft 155 kts 272°
2026-05-08 16:20 37.41856 -5.65809 3036 ft 151 kts 268°
2026-05-08 16:21 37.41885 -5.67108 2662 ft 148 kts 265°
2026-05-08 16:21 37.41891 -5.68431 2257 ft 151 kts 265°
2026-05-08 16:21 37.41887 -5.69758 1939 ft 151 kts 263°
2026-05-08 16:21 37.41882 -5.71054 1773 ft 140 kts 263°
2026-05-08 16:22 37.41876 -5.72260 1764 ft 139 kts 261°
2026-05-08 16:22 37.41866 -5.73507 1774 ft 146 kts 265°
2026-05-08 16:22 37.41860 -5.74827 1776 ft 153 kts 263°
2026-05-08 16:22 37.41854 -5.76149 1754 ft 151 kts 262°
2026-05-08 16:23 37.41844 -5.77447 1663 ft 151 kts 265°
2026-05-08 16:23 37.41842 -5.78762 1480 ft 148 kts 264°
2026-05-08 16:23 37.41837 -5.80030 1295 ft 143 kts 262°
2026-05-08 16:23 37.41828 -5.81313 1105 ft 147 kts 264°
2026-05-08 16:24 37.41807 -5.82590 941 ft 146 kts 259°
2026-05-08 16:24 37.41830 -5.83890 698 ft 149 kts 264°
2026-05-08 16:24 37.41851 -5.85194 491 ft 147 kts 259°
2026-05-08 16:24 37.41793 -5.86462 324 ft 144 kts 260°
2026-05-08 16:25 37.41801 -5.87692 133 ft 140 kts 263°
2026-05-08 16:25 37.41793 -5.88819 103 ft 115 kts 269°
2026-05-08 16:25 37.41791 -5.89668 97 ft 72 kts 271°
2026-05-08 16:25 37.41861 -5.89819 96 ft 13 kts 355°
2026-05-08 16:26 37.41905 -5.89834 98 ft 0 kts 340°
2026-05-08 16:27 37.41912 -5.89837 98 ft 4 kts 340°
2026-05-08 16:27 37.41967 -5.89877 95 ft 11 kts 302°
2026-05-08 16:27 37.41983 -5.89970 95 ft 11 kts 270°
2026-05-08 16:28 37.41983 -5.90080 95 ft 14 kts 269°
2026-05-08 16:28 37.41980 -5.90225 94 ft 17 kts 270°
2026-05-08 16:28 37.42012 -5.90305 94 ft 9 kts 352°
2026-05-08 16:28 37.42053 -5.90254 93 ft 9 kts 75°
2026-05-08 16:29 37.42091 -5.90192 94 ft 8 kts 34°
2026-05-08 16:29 37.42106 -5.90179 94 ft 0 kts 33°